Location: Montr�al
(45.5000°N, 73.5830°W)
Time: 14:09:23
(UTC-05:00)

ISS - All Passes

Search period start: 26 February 2017 00:00
Search period end: 08 March 2017 00:00
Orbit: 399 x 408 km, 51.6° (Epoch: 27 February)

Date Brightness Start Highest point End Pass type
(mag) Time Alt. Az. Time Alt. Az. Time Alt. Az.
26 Feb - 07:07:54 10° SSW 07:10:36 24° SE 07:13:20 10° E daylight
26 Feb - 08:43:36 10° WSW 08:46:53 59° NNW 08:50:09 10° ENE daylight
26 Feb - 10:20:53 10° WNW 10:23:46 27° N 10:26:40 10° ENE daylight
26 Feb - 11:57:42 10° NW 12:00:48 36° NNE 12:03:53 10° E daylight
26 Feb - 13:34:09 10° WNW 13:37:23 53° SW 13:40:35 10° SE daylight
27 Feb - 06:16:31 10° SSE 06:18:17 14° SE 06:20:04 10° E daylight
27 Feb - 07:51:00 10° WSW 07:54:18 87° SSE 07:57:38 10° ENE daylight
27 Feb - 09:28:04 10° WNW 09:31:03 30° N 09:34:02 10° NE daylight
27 Feb - 11:05:08 10° NW 11:08:07 30° N 11:11:05 10° ENE daylight
27 Feb - 12:41:34 10° WNW 12:44:52 88° NNE 12:48:10 10° ESE daylight
27 Feb - 14:19:02 10° W 14:20:55 15° SW 14:22:49 10° S daylight
28 Feb - 06:58:36 10° SW 07:01:49 50° SE 07:05:01 10° ENE daylight
28 Feb - 08:35:15 10° W 08:38:21 37° NNW 08:41:29 10° NE daylight
28 Feb - 10:12:29 10° WNW 10:15:23 27° N 10:18:16 10° ENE daylight
28 Feb - 11:49:02 10° WNW 11:52:18 56° NNE 11:55:32 10° ESE daylight
28 Feb - 13:25:48 10° W 13:28:35 25° SW 13:31:20 10° SSE daylight
01 Mar - 06:06:29 10° SSW 06:09:22 28° SE 06:12:16 10° ENE daylight
01 Mar - 07:42:27 10° W 07:45:41 52° NNW 07:48:56 10° NE daylight
01 Mar - 09:19:44 10° WNW 09:22:38 27° N 09:25:31 10° ENE daylight
01 Mar - 10:56:29 10° NW 10:59:38 40° NNE 11:02:46 10° E daylight
01 Mar - 12:32:58 10° WNW 12:36:09 44° SW 12:39:17 10° SE daylight
02 Mar - 05:14:49 10° S 05:16:58 16° SE 05:19:09 10° E visible
02 Mar - 06:49:46 10° WSW 06:53:04 81° NNW 06:56:23 10° ENE daylight
02 Mar - 08:26:55 10° WNW 08:29:52 29° N 08:32:49 10° NE daylight
02 Mar - 10:03:54 10° NW 10:06:55 31° NNE 10:09:55 10° ENE daylight
02 Mar - 11:40:19 10° WNW 11:43:38 79° SSW 11:46:54 10° SE daylight
02 Mar - 13:18:14 10° WSW 13:19:35 12° SW 13:20:57 10° SSW daylight
03 Mar - 05:57:15 10° SW 06:00:30 60° SE 06:03:46 10° ENE visible
03 Mar - 07:34:03 10° W 07:37:07 35° NNW 07:40:12 10° NE daylight
03 Mar - 09:11:14 10° NW 09:14:09 28° N 09:17:04 10° ENE daylight
03 Mar - 10:47:44 10° WNW 10:51:02 65° NNE 10:54:17 10° ESE daylight
03 Mar - 12:24:39 10° W 12:27:14 21° SW 12:29:47 10° S daylight
04 Mar - 05:04:58 10° SSW 05:07:59 34° SE 05:11:02 10° ENE visible
04 Mar - 06:41:11 10° W 06:44:24 46° NNW 06:47:36 10° NE daylight
04 Mar - 08:18:29 10° WNW 08:21:22 27° N 08:24:14 10° ENE daylight
04 Mar - 09:55:09 10° NW 09:58:21 44° NNE 10:01:31 10° E daylight
04 Mar - 11:31:42 10° WNW 11:34:47 37° SW 11:37:50 10° SSE daylight
05 Mar - 04:13:06 10° S 04:15:32 20° SE 04:18:01 10° E visible
05 Mar - 05:48:26 10° WSW 05:51:43 69° NNW 05:55:01 10° ENE visible
05 Mar - 07:25:39 10° WNW 07:28:33 28° N 07:31:29 10° NE daylight
05 Mar - 09:02:33 10° NW 09:05:36 33° NNE 09:08:39 10° E daylight
05 Mar - 10:38:58 10° WNW 10:42:14 66° SSW 10:45:31 10° SE daylight
06 Mar - 03:22:13 10° SSE 03:23:10 11° SE 03:24:08 10° ESE visible
06 Mar - 04:55:49 10° SW 04:59:05 72° SSE 05:02:23 10° ENE visible
06 Mar - 06:32:44 10° W 06:35:46 32° NNW 06:38:48 10° NE daylight
06 Mar - 08:09:52 10° NW 08:12:48 28° N 08:15:45 10° ENE daylight
06 Mar - 09:46:19 10° WNW 09:49:38 75° NNE 09:52:55 10° ESE daylight
06 Mar - 11:23:26 10° W 11:25:46 18° SW 11:28:04 10° S daylight
07 Mar - 04:03:25 10° SW 04:06:31 40° SE 04:09:39 10° ENE visible
07 Mar - 05:39:50 10° W 05:42:59 42° NNW 05:46:10 10° NE visible
07 Mar - 07:17:06 10° WNW 07:19:59 27° N 07:22:52 10° ENE daylight
07 Mar - 08:53:42 10° NW 08:56:56 49° NNE 09:00:09 10° E daylight
07 Mar - 10:30:20 10° WNW 10:33:18 31° SW 10:36:15 10° SSE daylight
